| time (UTC) | temp F | wind direction | speed knots | gust knots | rain 1hr in | rain 24hr in | rain mn in | humidity % | barometer mb |
| 20260504081709 | 41 | 340 | 0.0 | 0.0 | 0.00 | 0.00 | 0.00 | 76 | 1016.3 |
| 20260504081205 | 41 | 344 | 0.0 | 0.0 | 0.00 | 0.00 | 0.00 | 76 | 1016.4 |
| 20260504080701 | 42 | 341 | 0.0 | 0.0 | 0.00 | 0.00 | 0.00 | 75 | 1016.4 |
| 20260504080158 | 42 | 334 | 0.0 | 0.9 | 0.00 | 0.00 | 0.00 | 75 | 1016.4 |
| 20260504070126 | 41 | 337 | 0.0 | 0.0 | 0.00 | 0.00 | 0.00 | 80 | 1016.5 |
| 20260504050514 | 38 | 348 | 0.0 | 0.9 | 0.00 | 0.00 | 0.00 | 91 | 1016.6 |
| 20260504050012 | 37 | 348 | 0.0 | 0.0 | 0.00 | 0.00 | 0.00 | 90 | 1016.5 |
| 20260504045508 | 37 | 346 | 0.0 | 0.0 | 0.00 | 0.00 | 0.00 | 89 | 1016.9 |
| 20260504045003 | 38 | 345 | 0.0 | 0.0 | 0.00 | 0.00 | 0.00 | 89 | 1016.7 |
| 20260504044501 | 38 | 347 | 0.0 | 0.0 | 0.00 | 0.00 | 0.00 | 88 | 1016.7 |
| 20260504043958 | 39 | 348 | 0.0 | 0.0 | 0.00 | 0.00 | 0.00 | 87 | 1016.6 |
| 20260504043455 | 39 | 349 | 0.0 | 0.0 | 0.00 | 0.00 | 0.00 | 86 | 1016.7 |
| 20260504042952 | 39 | 350 | 0.0 | 0.0 | 0.00 | 0.00 | 0.00 | 86 | 1016.5 |
| 20260504042449 | 39 | 350 | 0.0 | 0.0 | 0.00 | 0.00 | 0.00 | 86 | 1016.5 |
| 20260504041945 | 40 | 347 | 0.0 | 0.0 | 0.00 | 0.00 | 0.00 | 86 | 1016.5 |
| 20260504041442 | 39 | 341 | 0.0 | 0.0 | 0.00 | 0.00 | 0.00 | 87 | 1016.6 |
| 20260504040937 | 40 | 344 | 0.0 | 0.0 | 0.00 | 0.00 | 0.00 | 87 | 1016.6 |
| 20260504040436 | 40 | 349 | 0.0 | 0.0 | 0.00 | 0.00 | 0.00 | 87 | 1016.3 |
| 20260504035931 | 39 | 345 | 0.0 | 0.0 | 0.00 | 0.00 | 0.00 | 86 | 1016.6 |
| 20260504035429 | 40 | 344 | 0.0 | 0.0 | 0.00 | 0.00 | 0.00 | 86 | 1016.6 |
| 20260504034926 | 41 | 340 | 0.0 | 0.0 | 0.00 | 0.00 | 0.00 | 86 | 1016.6 |
| 20260504034423 | 41 | 340 | 0.0 | 0.0 | 0.00 | 0.00 | 0.00 | 86 | 1016.5 |
| 20260504033920 | 41 | 339 | 0.0 | 0.0 | 0.00 | 0.00 | 0.00 | 85 | 1016.6 |
| 20260504033418 | 41 | 335 | 0.0 | 0.0 | 0.00 | 0.00 | 0.00 | 85 | 1016.7 |
| 20260504032915 | 41 | 338 | 0.0 | 0.0 | 0.00 | 0.00 | 0.00 | 85 | 1016.5 |
| 20260504032411 | 41 | 340 | 0.0 | 0.0 | 0.00 | 0.00 | 0.00 | 85 | 1016.7 |
| 20260504031908 | 41 | 340 | 0.0 | 0.0 | 0.00 | 0.00 | 0.00 | 84 | 1016.5 |
| 20260504031405 | 42 | 340 | 0.0 | 0.0 | 0.00 | 0.00 | 0.00 | 84 | 1016.4 |
| 20260504030902 | 42 | 339 | 0.0 | 0.0 | 0.00 | 0.00 | 0.00 | 83 | 1016.2 |
| 20260504030359 | 42 | 339 | 0.0 | 0.0 | 0.00 | 0.00 | 0.00 | 82 | 1016.3 |
| 20260504025855 | 42 | 337 | 0.0 | 0.0 | 0.00 | 0.00 | 0.00 | 81 | 1016.2 |
| 20260504025352 | 43 | 336 | 0.0 | 0.0 | 0.00 | 0.00 | 0.00 | 81 | 1016.2 |
| 20260504024848 | 43 | 338 | 0.0 | 0.0 | 0.00 | 0.00 | 0.00 | 81 | 1016.3 |
| 20260504024345 | 43 | 325 | 0.9 | 0.9 | 0.00 | 0.00 | 0.00 | 79 | 1016.2 |
| 20260504023842 | 44 | 339 | 0.0 | 0.0 | 0.00 | 0.00 | 0.00 | 78 | 1016.3 |
| 20260504023339 | 44 | 336 | 0.0 | 0.9 | 0.00 | 0.00 | 0.00 | 77 | 1016.2 |
| 20260504022834 | 44 | 330 | 0.0 | 0.9 | 0.00 | 0.00 | 0.00 | 77 | 1016.3 |
| 20260504022332 | 44 | 329 | 0.0 | 0.9 | 0.00 | 0.00 | 0.00 | 77 | 1016.1 |
| 20260504021828 | 44 | 330 | 0.0 | 0.9 | 0.00 | 0.00 | 0.00 | 77 | 1016.3 |
| 20260504021326 | 44 | 335 | 0.0 | 0.0 | 0.00 | 0.00 | 0.00 | 77 | 1016.0 |
| 20260504020822 | 44 | 341 | 0.0 | 0.0 | 0.00 | 0.00 | 0.00 | 77 | 1016.1 |
| 20260504020319 | 44 | 339 | 0.0 | 0.0 | 0.00 | 0.00 | 0.00 | 77 | 1016.2 |
| 20260504015815 | 44 | 343 | 0.0 | 0.0 | 0.00 | 0.00 | 0.00 | 74 | 1016.3 |
| 20260504015311 | 45 | 341 | 0.0 | 0.0 | 0.00 | 0.00 | 0.00 | 73 | 1016.1 |
| 20260504014808 | 46 | 350 | 0.0 | 0.0 | 0.00 | 0.00 | 0.00 | 71 | 1016.0 |
| 20260504014304 | 46 | 320 | 0.9 | 1.7 | 0.00 | 0.00 | 0.00 | 69 | 1016.1 |
| 20260504013802 | 46 | 333 | 0.9 | 0.9 | 0.00 | 0.00 | 0.00 | 70 | 1016.2 |
| 20260504013259 | 47 | 331 | 0.9 | 0.9 | 0.00 | 0.00 | 0.00 | 68 | 1016.1 |
| 20260504012755 | 47 | 325 | 0.9 | 0.9 | 0.00 | 0.00 | 0.00 | 67 | 1016.0 |
| 20260504012254 | 47 | 325 | 0.9 | 0.9 | 0.00 | 0.00 | 0.00 | 67 | 1016.0 |
| 20260504011750 | 48 | 335 | 0.0 | 0.0 | 0.00 | 0.00 | 0.00 | 66 | 1015.9 |
| 20260504011247 | 48 | 333 | 0.0 | 0.0 | 0.00 | 0.00 | 0.00 | 66 | 1015.9 |
| 20260504010743 | 49 | 345 | 0.0 | 0.0 | 0.00 | 0.00 | 0.00 | 64 | 1015.7 |
| 20260504010238 | 50 | 350 | 0.0 | 0.9 | 0.00 | 0.00 | 0.00 | 60 | 1015.8 |
| 20260504005735 | 50 | 343 | 0.0 | 0.0 | 0.00 | 0.00 | 0.00 | 57 | 1015.7 |
| 20260504005233 | 51 | 330 | 0.9 | 0.9 | 0.00 | 0.00 | 0.00 | 55 | 1015.6 |
| 20260504004730 | 51 | 327 | 0.9 | 0.9 | 0.00 | 0.00 | 0.00 | 56 | 1015.9 |
| 20260504004227 | 51 | 330 | 0.9 | 0.9 | 0.00 | 0.00 | 0.00 | 56 | 1015.8 |
| 20260504003724 | 52 | 336 | 0.0 | 0.9 | 0.00 | 0.00 | 0.00 | 55 | 1015.7 |
| 20260504003221 | 52 | 334 | 0.0 | 0.9 | 0.00 | 0.00 | 0.00 | 54 | 1015.9 |
| 20260504002717 | 53 | 324 | 0.9 | 0.9 | 0.00 | 0.00 | 0.00 | 52 | 1015.6 |
| 20260504002214 | 54 | 345 | 0.0 | 0.0 | 0.00 | 0.00 | 0.00 | 50 | 1015.6 |
| 20260504001712 | 55 | 311 | 0.9 | 0.9 | 0.00 | 0.00 | 0.00 | 47 | 1015.5 |
| 20260504001209 | 55 | 313 | 0.9 | 0.9 | 0.00 | 0.00 | 0.00 | 47 | 1015.6 |
| 20260504000706 | 55 | 325 | 0.0 | 0.9 | 0.00 | 0.00 | 0.00 | 47 | 1015.5 |
| 20260504000204 | 56 | 297 | 1.7 | 1.7 | 0.00 | 0.00 | 0.00 | 45 | 1015.4 |
| 20260503235701 | 56 | 306 | 1.7 | 1.7 | 0.00 | 0.00 | 0.00 | 45 | 1015.2 |
| 20260503235157 | 57 | 322 | 0.9 | 2.6 | 0.00 | 0.00 | 0.00 | 43 | 1015.3 |
| 20260503234655 | 57 | 327 | 0.9 | 1.7 | 0.00 | 0.00 | 0.00 | 43 | 1015.1 |
| 20260503234154 | 57 | 307 | 1.7 | 2.6 | 0.00 | 0.00 | 0.00 | 42 | 1015.1 |
| 20260503233650 | 58 | 312 | 1.7 | 4.3 | 0.00 | 0.00 | 0.00 | 41 | 1015.1 |
| 20260503233146 | 58 | 327 | 3.5 | 4.3 | 0.00 | 0.00 | 0.00 | 41 | 1015.2 |
| 20260503232643 | 58 | 323 | 1.7 | 4.3 | 0.00 | 0.00 | 0.00 | 41 | 1015.1 |
| 20260503232140 | 58 | 328 | 1.7 | 1.7 | 0.00 | 0.00 | 0.00 | 41 | 1015.0 |
| 20260503231638 | 59 | 335 | 1.7 | 4.3 | 0.00 | 0.00 | 0.00 | 40 | 1015.0 |
| 20260503231134 | 59 | 326 | 1.7 | 5.2 | 0.00 | 0.00 | 0.00 | 41 | 1014.8 |
| 20260503230631 | 59 | 54 | 2.6 | 5.2 | 0.00 | 0.00 | 0.00 | 39 | 1014.8 |
| 20260503230128 | 59 | 288 | 3.5 | 5.2 | 0.00 | 0.00 | 0.00 | 40 | 1015.0 |
| 20260503225626 | 59 | 344 | 2.6 | 5.2 | 0.00 | 0.00 | 0.00 | 40 | 1015.1 |
| 20260503225125 | 60 | 251 | 7.8 | 8.7 | 0.00 | 0.00 | 0.00 | 38 | 1015.0 |
| 20260503224623 | 60 | 271 | 2.6 | 7.0 | 0.00 | 0.00 | 0.00 | 39 | 1015.0 |
| 20260503224121 | 60 | 351 | 2.6 | 2.6 | 0.00 | 0.00 | 0.00 | 40 | 1014.9 |
| 20260503223619 | 61 | 281 | 2.6 | 6.1 | 0.00 | 0.00 | 0.00 | 39 | 1015.0 |
| 20260503223114 | 61 | 297 | 2.6 | 5.2 | 0.00 | 0.00 | 0.00 | 38 | 1015.1 |
| 20260503222612 | 60 | 240 | 2.6 | 6.1 | 0.00 | 0.00 | 0.00 | 39 | 1015.1 |
| 20260503222109 | 60 | 236 | 3.5 | 7.8 | 0.00 | 0.00 | 0.00 | 39 | 1014.8 |
| 20260503221608 | 61 | 315 | 2.6 | 7.0 | 0.00 | 0.00 | 0.00 | 41 | 1015.1 |
| 20260503221105 | 60 | 309 | 3.5 | 8.7 | 0.00 | 0.00 | 0.00 | 38 | 1015.1 |
| 20260503220601 | 60 | 236 | 3.5 | 6.1 | 0.00 | 0.00 | 0.00 | 38 | 1015.2 |
| 20260503220058 | 60 | 279 | 6.1 | 7.8 | 0.00 | 0.00 | 0.00 | 39 | 1015.1 |
| 20260503215555 | 61 | 342 | 2.6 | 4.3 | 0.00 | 0.00 | 0.00 | 38 | 1015.0 |
| 20260503215052 | 60 | 212 | 2.6 | 7.0 | 0.00 | 0.00 | 0.00 | 40 | 1015.3 |
| 20260503214550 | 61 | 283 | 3.5 | 8.7 | 0.00 | 0.00 | 0.00 | 38 | 1015.2 |
| 20260503214046 | 61 | 307 | 2.6 | 7.8 | 0.00 | 0.00 | 0.00 | 39 | 1015.1 |
| 20260503213545 | 62 | 250 | 5.2 | 9.6 | 0.00 | 0.00 | 0.00 | 39 | 1015.2 |
| 20260503213041 | 62 | 304 | 4.3 | 9.6 | 0.00 | 0.00 | 0.00 | 38 | 1015.3 |
| 20260503212539 | 62 | 299 | 0.9 | 2.6 | 0.00 | 0.00 | 0.00 | 44 | 1014.8 |
| 20260503212036 | 62 | 276 | 2.6 | 4.3 | 0.00 | 0.00 | 0.00 | 41 | 1015.0 |
| 20260503211533 | 60 | 308 | 5.2 | 7.8 | 0.00 | 0.00 | 0.00 | 38 | 1014.9 |
| 20260503211028 | 61 | 248 | 4.3 | 7.0 | 0.00 | 0.00 | 0.00 | 39 | 1015.1 |
| 20260503210526 | 60 | 309 | 3.5 | 7.0 | 0.00 | 0.00 | 0.00 | 39 | 1015.0 |
| 20260503210021 | 62 | 345 | 2.6 | 7.0 | 0.00 | 0.00 | 0.00 | 39 | 1014.9 |
| 20260503205518 | 63 | 244 | 1.7 | 2.6 | 0.00 | 0.00 | 0.00 | 40 | 1015.0 |
| 20260503205015 | 62 | 297 | 4.3 | 6.1 | 0.00 | 0.00 | 0.00 | 39 | 1015.1 |
| 20260503204512 | 61 | 300 | 4.3 | 7.8 | 0.00 | 0.00 | 0.00 | 38 | 1015.0 |
| 20260503204008 | 61 | 345 | 6.1 | 8.7 | 0.00 | 0.00 | 0.00 | 37 | 1015.0 |
| 20260503203506 | 60 | 243 | 6.1 | 9.6 | 0.00 | 0.00 | 0.00 | 37 | 1015.2 |
| 20260503203003 | 59 | 301 | 4.3 | 7.0 | 0.00 | 0.00 | 0.00 | 39 | 1015.0 |
| 20260503202500 | 61 | 263 | 3.5 | 7.8 | 0.00 | 0.00 | 0.00 | 38 | 1015.1 |
| 20260503201959 | 61 | 309 | 4.3 | 7.8 | 0.00 | 0.00 | 0.00 | 38 | 1015.2 |
| 20260503201456 | 62 | 295 | 3.5 | 6.1 | 0.00 | 0.00 | 0.00 | 38 | 1015.1 |
| 20260503200953 | 60 | 337 | 0.9 | 6.1 | 0.00 | 0.00 | 0.00 | 42 | 1015.3 |
| 20260503200449 | 58 | 311 | 3.5 | 6.1 | 0.00 | 0.00 | 0.00 | 39 | 1015.3 |
| 20260503195946 | 59 | 287 | 6.1 | 7.0 | 0.00 | 0.00 | 0.00 | 37 | 1015.4 |
| 20260503195444 | 59 | 354 | 1.7 | 13.0 | 0.00 | 0.00 | 0.00 | 40 | 1015.4 |
| 20260503194940 | 60 | 243 | 9.6 | 13.9 | 0.00 | 0.00 | 0.00 | 37 | 1015.1 |
| 20260503194437 | 60 | 291 | 4.3 | 7.0 | 0.00 | 0.00 | 0.00 | 40 | 1015.6 |
| 20260503193932 | 60 | 26 | 1.7 | 7.8 | 0.00 | 0.00 | 0.00 | 38 | 1015.5 |
| 20260503193428 | 60 | 293 | 6.1 | 9.6 | 0.00 | 0.00 | 0.00 | 37 | 1015.6 |
| 20260503192923 | 61 | 344 | 5.2 | 7.0 | 0.00 | 0.00 | 0.00 | 38 | 1015.7 |
| 20260503192421 | 60 | 325 | 6.1 | 8.7 | 0.00 | 0.00 | 0.00 | 37 | 1016.0 |
| 20260503191916 | 59 | 289 | 7.8 | 9.6 | 0.00 | 0.00 | 0.00 | 37 | 1015.9 |
| 20260503191414 | 60 | 342 | 2.6 | 4.3 | 0.00 | 0.00 | 0.00 | 39 | 1015.9 |
| 20260503190910 | 60 | 323 | 3.5 | 8.7 | 0.00 | 0.00 | 0.00 | 39 | 1015.9 |
| 20260503190408 | 60 | 303 | 4.3 | 13.9 | 0.00 | 0.00 | 0.00 | 38 | 1015.9 |
| 20260503185904 | 59 | 302 | 3.5 | 5.2 | 0.00 | 0.00 | 0.00 | 43 | 1015.9 |
| 20260503185401 | 60 | 266 | 4.3 | 7.0 | 0.00 | 0.00 | 0.00 | 39 | 1016.2 |
| 20260503184900 | 59 | 267 | 7.0 | 13.0 | 0.00 | 0.00 | 0.00 | 37 | 1016.1 |
| 20260503184356 | 59 | 254 | 3.5 | 7.0 | 0.00 | 0.00 | 0.00 | 43 | 1016.3 |
| 20260503183853 | 59 | 251 | 3.5 | 6.1 | 0.00 | 0.00 | 0.00 | 44 | 1016.2 |
| 20260503183350 | 59 | 330 | 6.1 | 9.6 | 0.00 | 0.00 | 0.00 | 40 | 1016.3 |
| 20260503182847 | 58 | 274 | 2.6 | 2.6 | 0.00 | 0.00 | 0.00 | 44 | 1016.4 |
| 20260503182346 | 58 | 339 | 2.6 | 5.2 | 0.00 | 0.00 | 0.00 | 43 | 1016.4 |
| 20260503181842 | 58 | 250 | 7.8 | 11.3 | 0.00 | 0.00 | 0.00 | 41 | 1016.5 |
| 20260503181340 | 58 | 207 | 5.2 | 7.8 | 0.00 | 0.00 | 0.00 | 40 | 1016.5 |
| 20260503180836 | 58 | 311 | 6.1 | 8.7 | 0.00 | 0.00 | 0.00 | 42 | 1016.5 |
| 20260503180334 | 56 | 297 | 7.0 | 9.6 | 0.00 | 0.00 | 0.00 | 41 | 1016.6 |
| 20260503175830 | 55 | 37 | 2.6 | 11.3 | 0.00 | 0.00 | 0.00 | 42 | 1016.7 |
| 20260503175328 | 55 | 236 | 5.2 | 9.6 | 0.00 | 0.00 | 0.00 | 42 | 1016.7 |
| 20260503174823 | 56 | 281 | 5.2 | 7.0 | 0.00 | 0.00 | 0.00 | 44 | 1016.9 |
| 20260503174322 | 57 | 238 | 7.8 | 11.3 | 0.00 | 0.00 | 0.00 | 43 | 1017.0 |
| 20260503173817 | 56 | 305 | 4.3 | 6.1 | 0.00 | 0.00 | 0.00 | 43 | 1016.7 |
| 20260503173314 | 56 | 352 | 5.2 | 8.7 | 0.00 | 0.00 | 0.00 | 44 | 1016.9 |
| 20260503172810 | 56 | 212 | 2.6 | 6.1 | 0.00 | 0.00 | 0.00 | 50 | 1016.6 |
| 20260503172308 | 56 | 14 | 5.2 | 7.0 | 0.00 | 0.00 | 0.00 | 45 | 1016.7 |
| 20260503171804 | 56 | 333 | 4.3 | 7.0 | 0.00 | 0.00 | 0.00 | 44 | 1016.9 |
| 20260503171301 | 56 | 326 | 4.3 | 7.8 | 0.00 | 0.00 | 0.00 | 44 | 1016.9 |
| 20260503170758 | 54 | 271 | 6.1 | 7.8 | 0.00 | 0.00 | 0.00 | 45 | 1017.2 |
| 20260503170255 | 55 | 296 | 2.6 | 6.1 | 0.00 | 0.00 | 0.00 | 44 | 1017.1 |
| 20260503160217 | 53 | 336 | 5.2 | 8.7 | 0.00 | 0.00 | 0.00 | 47 | 1017.7 |
| 20260503150647 | 51 | 299 | 3.5 | 7.8 | 0.00 | 0.00 | 0.00 | 51 | 1018.0 |
| 20260503150143 | 51 | 273 | 6.1 | 8.7 | 0.00 | 0.00 | 0.00 | 46 | 1018.1 |
| 20260503140108 | 49 | 285 | 4.3 | 7.8 | 0.00 | 0.00 | 0.00 | 51 | 1018.3 |
| 20260503131037 | 47 | 308 | 2.6 | 9.6 | 0.00 | 0.00 | 0.00 | 55 | 1018.2 |
| 20260503130534 | 46 | 260 | 1.7 | 7.8 | 0.00 | 0.00 | 0.00 | 58 | 1018.1 |
| 20260503110425 | 39 | 316 | 2.6 | 4.3 | 0.00 | 0.00 | 0.00 | 72 | 1017.4 |